Location: Bytom
(50.3475°N, 18.9244°E)
Time: 07:50:59
(UTC+01:00)

ISS - Pass Details

Date: 28 January 2019
Orbit: 403 x 411 km, 51.6° (Epoch: 22 February)

Event Time Altitude Azimuth Distance (km) Brightness Sun altitude
Rises 19:06:53 0° 269° (W) 2,336 1.4 -24.9°
Reaches altitude 10° 19:08:59 10° 271° (W) 1,477 0.1 -25.2°
Enters shadow 19:10:48 30° 279° (W) 776 -1.8 -25.5°
